Dewpoint
1 1 1 2 1 1 2 2 2 2 1 0 1 1 1 2 2 2 -1 -2 -4 -10 -8 -3 2 4 5 6 5 2 4 6 6 3 0 -1 -0 -1 -0 -1 -2 -1 -1 -1 -2 -2 -2
1 1 0 1 2 1 2 2 2 0 2 1 1 1 0 -1 -1 -3 -5 -7 -5 -15 -13 0 3 3 5 4 3 3 4 6 6 3 -0 2 0 -1 -1 -2 -2 -2 -1 -1 -3 -3 -2
2 1 1 2 1 1 2 2 2 0 -3 1 0 1 -1 -0 -0 -5 -8 -9 -11 -14 -6 3 1 3 5 4 4 5 5 6 3 -2 2 0 -0 -2 -2 -2 -1 -1 -1 -2 -3 -2 -2
2 0 1 1 1 1 2 3 2 0 -1 -9 -4 -0 -1 -1 -3 -8 -8 4 3 0 -4 5 5 4 4 4 4 3 3 2 2 2 1 -1 -1 -2 -2 -1 -3 -2 -2 -2 -6 -2 -2
1 0 0 1 1 1 2 2 2 1 -6 -8 -8 -7 -6 -7 -8 -8 3 4 2 1 2 5 4 2 3 4 4 3 2 2 2 2 1 -0 -2 -1 -1 -1 -2 -2 -1 -0 -1 -2 -1
1 1 0 0 1 1 2 2 3 1 -6 -6 -5 -5 -6 -8 -9 -8 3 2 3 3 4 4 3 3 3 4 4 3 2 1 0 -0 -1 -1 -1 -1 -1 -1 -3 -2 -0 -0 0 -2 -1
-1 1 0 0 1 1 1 2 2 2 -3 -6 -6 -7 -7 -9 -11 -6 3 3 2 3 3 3 4 4 4 2 2 3 1 -1 -2 -2 0 0 0 -1 -1 -2 -3 -1 -0 0 -1 -2 -1
-4 -1 0 0 1 1 0 -1 1 -2 -2 -5 -8 -7 -6 -8 -7 -6 2 1 2 3 3 4 3 4 3 3 2 1 0 -0 -1 0 -1 -1 -0 -2 -2 -2 -1 -0 1 1 -0 -1 -0
-8 -3 -2 0 1 1 2 -2 -2 -3 -4 -7 -7 -7 -5 -5 -3 -3 0 2 3 2 2 2 3 3 3 3 2 1 0 -0 -0 0 0 -0 -2 -2 -1 -0 0 0 1 0 1 -0 0
-13 -5 -4 -6 0 1 1 2 -5 -5 -5 -6 -6 -4 -5 -6 -6 -2 0 2 1 1 -0 2 2 3 3 2 2 1 1 1 1 0 1 0 -1 -1 0 1 0 3 -0 0 1 3 4
-15 -11 -3 -7 -8 0 2 1 2 -6 -5 -5 -5 -4 -1 -3 -3 -2 1 1 0 -1 -1 2 3 2 2 3 1 1 1 1 3 3 -0 -1 0 2 3 2 1 3 1 2 2 4 5
-15 -14 -5 -5 -8 -10 -2 2 2 1 -3 -0 0 0 -2 -1 -3 -1 -0 -0 -2 -2 2 3 3 3 2 2 2 1 1 1 1 3 1 -0 -1 1 1 1 1 1 3 3 4 5 6
-4 -17 -14 -3 -3 -8 -10 -6 -0 0 -2 -3 -1 0 -0 -2 -2 -1 -1 -2 -1 0 2 4 3 3 3 3 3 2 2 2 3 3 1 1 2 1 1 4 3 3 4 5 4 7 6
0 -12 -15 -16 -4 -5 -8 -7 -5 -5 -4 -4 -4 -1 -1 -0 -1 -2 -1 -2 1 3 3 1 2 2 2 2 2 3 3 3 2 3 4 3 2 3 2 3 5 6 6 7 7 6 6
1 -1 -20 -15 -20 -6 -4 -7 -8 -7 -6 -5 -4 -2 -1 -1 -0 -1 -1 2 3 3 2 2 2 4 4 4 3 3 4 3 3 2 4 6 3 3 3 3 4 6 7 6 7 7 7
2 0 -6 -18 -16 -19 -5 -4 -5 -8 -7 -6 -4 -2 -2 -1 -1 -1 0 3 3 2 2 2 3 2 3 3 4 4 5 3 4 3 3 5 6 2 3 3 4 6 5 7 7 7 7
-2 1 -1 -19 -14 -15 -6 -4 -4 -8 -7 -6 -4 -3 -2 -2 -1 -1 2 2 1 1 2 1 1 3 3 4 4 4 4 3 3 4 3 4 5 3 3 5 6 6 7 6 6 7 7
-9 1 1 -11 -15 -12 -4 -3 -3 -6 -7 -7 -5 -2 -1 -3 -1 -2 -0 -0 1 1 1 1 1 -2 2 3 4 4 3 2 2 2 4 3 4 5 3 0 0 1 5 5 6 6 5
-13 -4 1 -4 -17 -10 -4 -3 -3 -7 -6 -6 -5 -3 -1 -3 -0 -2 -1 -0 0 1 1 1 1 -0 -1 1 2 2 1 0 2 3 3 2 3 4 1 1 0 3 4 4 5 4 4
-13 -8 0 0 -17 -8 -3 -4 -6 -8 -6 -5 -4 -3 -2 -1 -0 -1 0 0 1 0 1 1 1 -0 -1 0 -1 1 0 -0 -1 0 1 -0 1 2 3 2 1 2 1 4 3 4 5
-13 -12 -2 1 -15 -8 -3 -4 -6 -7 -5 -5 -3 -1 -1 -2 -1 -1 -1 -0 1 2 1 0 -0 1 2 1 -0 1 1 -1 -2 -2 -0 -1 1 0 0 0 -0 1 0 3 4 3 5
-7 -12 -4 1 -10 -9 -4 -5 -6 -6 -5 -5 -3 -2 -1 -1 -1 -2 -1 0 1 1 1 1 1 1 1 2 2 3 2 -0 -0 -2 -1 -1 1 1 1 -1 0 1 -1 1 2 4 4
-1 -7 -6 1 -5 -12 -3 -4 -6 -4 -4 -4 -2 -2 -3 -2 -2 -2 -1 -1 0 -0 1 1 1 1 1 1 1 1 1 1 -0 -1 -1 -0 -0 0 0 -2 -2 -3 -3 0 1 1 2
5 -2 -8 -0 -1 -14 -5 -3 -4 -3 -3 -3 -3 -2 -4 -2 -2 -1 -1 -1 -0 -0 1 1 1 1 0 0 0 0 1 1 0 -1 -2 -1 -0 -1 0 -4 -8 -7 -3 -3 -0 -1 -0
6 4 -3 -2 1 -12 -7 -3 -3 -3 -2 -3 -3 -2 -2 -3 -3 -2 -1 -1 -1 -1 0 1 0 0 -0 -0 -1 -2 -3 -5 -3 -3 -2 -2 -1 -0 -1 -1 -8 -5 -4 -2 -1 -1 -2
6 6 2 -3 1 -8 -9 -4 -2 -2 -2 -2 -3 -2 -3 -3 -4 -2 -2 -1 -1 -2 -2 -1 -0 0 -0 -2 -2 -2 -4 -1 -2 -2 -2 -3 -2 -1 -0 -2 -9 -11 -4 -5 -5 -2 -6
6 6 5 -2 1 -2 -12 -4 -2 -1 -2 -2 -3 -3 -2 -2 -3 -3 -2 -1 -1 -0 -1 -1 -0 0 0 -1 0 -0 -1 -2 -1 -1 -2 -1 -2 -0 -0 -0 -3 -7 -4 -5 -2 -7 -4
6 5 6 3 1 1 -8 -11 -3 -2 -1 -1 -2 -2 -2 -2 -3 -3 -3 -1 -0 0 -1 -2 -1 -1 -0 -1 1 -0 -1 -2 -1 -3 -3 -3 -3 -1 -1 1 -2 -4 -4 -3 -5 -5 -3
5 5 5 5 -0 2 -1 -12 -7 -2 -1 -1 -1 -1 -2 -2 -3 -3 -3 -3 -2 -1 -0 -0 -1 0 1 -1 -1 -1 1 -2 -3 -0 -4 -2 -3 -3 -2 -3 -6 -4 -4 -5 -5 -4 -4
Wind_Speed
26 26 25 26 29 30 30 31 32 35 37 42 34 27 22 13 6 3 1 3 4 3 5 7 7 9 11 7 7 4 9 15 17 14 10 11 10 5 5 5 3 2 0 3 7 16 17
26 26 26 27 29 30 29 29 28 29 29 30 29 21 20 12 8 4 3 2 4 1 6 8 10 14 13 6 11 11 13 18 16 12 12 10 6 8 8 3 2 2 4 10 12 17 11
25 27 28 28 29 31 29 26 26 26 26 22 19 18 13 10 8 7 4 2 5 1 7 11 11 18 14 13 17 11 8 17 10 10 14 9 9 4 6 3 2 2 4 7 3 2 3
25 25 28 28 29 31 29 26 22 23 21 22 20 17 15 12 10 10 7 10 8 5 11 14 23 25 7 20 11 8 15 13 11 11 10 11 8 9 4 5 4 3 2 4 1 2 3
24 25 27 29 33 31 29 25 21 18 20 20 18 17 16 15 13 11 12 19 15 16 19 18 22 21 4 20 17 13 13 14 10 10 11 8 5 4 3 3 2 5 1 2 7 1 2
24 25 28 29 31 31 29 24 20 20 20 20 19 18 15 15 13 11 16 27 26 27 19 15 15 16 10 9 20 17 16 13 8 10 9 4 5 3 2 2 1 0 2 3 6 3 1
25 24 27 29 31 31 29 26 21 17 17 20 21 18 15 15 14 12 25 24 14 15 26 12 12 20 14 22 19 15 14 12 10 7 3 3 3 2 4 4 3 4 1 6 9 12 9
27 25 25 27 29 31 32 28 24 19 18 21 24 17 16 15 17 14 10 13 11 11 15 25 20 21 18 9 10 11 11 3 3 3 3 3 1 3 3 3 2 2 6 7 10 4 2
30 26 25 24 26 28 30 32 26 22 21 22 22 19 17 15 14 15 22 19 15 11 7 11 16 9 9 11 6 9 6 4 3 3 2 2 1 6 4 3 3 4 5 4 7 8 13
31 27 27 23 22 25 25 27 30 23 21 21 21 19 15 9 11 15 19 13 9 5 5 10 9 6 6 4 4 7 5 2 1 1 4 3 3 3 2 2 6 5 9 9 9 6 4
31 30 26 26 23 21 23 23 24 24 20 20 21 20 21 17 8 12 12 13 4 4 6 7 4 4 4 3 7 3 6 3 3 4 3 4 1 3 6 6 9 5 1 6 9 11 8
31 30 28 25 25 22 18 21 21 20 18 19 22 21 16 21 16 13 12 6 7 6 3 2 4 2 2 2 3 3 1 1 4 3 3 6 4 4 5 2 7 3 6 8 9 4 4
31 30 29 26 25 23 20 18 19 18 14 12 15 21 18 9 9 5 2 5 5 6 1 3 3 2 3 3 2 2 2 1 1 3 5 5 2 2 3 3 2 5 4 3 3 3 5
30 30 29 28 26 25 22 20 19 21 19 14 10 14 18 13 5 5 3 5 9 4 4 1 1 1 2 4 2 1 1 2 4 3 2 4 6 5 4 4 1 3 3 2 4 2 5
29 29 29 29 27 24 24 23 21 21 20 18 5 13 21 14 9 8 6 6 3 1 0 4 1 2 0 2 1 1 1 1 1 6 2 2 4 2 4 3 3 1 3 3 4 3 3
27 29 29 28 29 26 23 24 23 20 20 17 6 3 19 13 14 10 6 7 3 2 2 1 1 0 2 1 1 1 2 2 1 6 5 2 4 2 0 2 5 6 5 1 1 3 3
31 27 29 29 29 29 24 24 24 22 20 12 6 3 13 11 16 12 5 3 2 2 1 1 1 1 3 3 2 2 1 3 3 4 10 3 2 4 1 5 4 1 2 2 1 2 2
29 29 27 29 29 29 25 24 23 20 18 10 6 3 10 6 8 4 2 4 4 3 3 2 1 1 3 4 1 1 3 5 10 9 6 5 2 4 5 2 1 3 2 4 2 1 1
26 29 28 28 29 28 28 24 19 16 18 7 5 4 11 4 4 1 3 3 2 6 4 4 2 2 2 0 1 4 2 1 6 7 4 5 2 4 3 2 1 2 3 4 2 0 2
23 26 29 27 27 29 26 23 18 15 15 9 3 2 7 9 6 6 4 2 4 4 1 3 4 3 3 4 1 3 4 2 3 2 5 5 2 4 4 4 0 5 4 2 4 2 3
22 22 26 28 26 27 25 21 17 15 13 6 5 1 2 0 4 3 2 3 3 6 6 10 3 4 2 4 5 5 3 5 1 5 1 2 3 2 5 7 2 4 3 2 5 3 3
24 20 22 25 25 24 24 20 16 14 10 11 4 3 3 4 1 1 3 1 3 1 1 4 3 4 4 3 3 4 2 0 0 5 3 4 3 2 5 3 5 5 5 6 2 3 3
25 20 19 21 23 22 21 19 16 14 10 6 6 5 2 2 1 3 3 5 5 6 4 3 3 1 2 3 8 14 14 11 5 2 3 2 2 3 4 4 6 5 8 6 3 4 6
23 21 17 18 20 20 19 17 14 14 13 9 7 2 2 1 1 1 2 3 5 4 4 3 4 2 3 16 10 5 6 11 9 8 8 2 1 2 4 4 2 3 1 0 3 6 7
21 22 17 15 16 17 16 14 11 9 10 10 10 5 3 1 2 2 1 3 4 4 3 4 6 4 7 6 4 4 3 2 2 3 5 5 3 0 1 2 7 1 2 3 3 5 6
20 22 18 14 13 14 14 12 9 7 7 8 8 6 3 0 4 2 3 2 1 2 4 4 5 7 3 3 3 1 3 2 4 7 5 5 3 3 1 1 5 4 2 3 3 4 4
19 20 19 14 10 11 11 10 8 6 7 8 9 7 4 3 3 6 4 3 4 2 2 4 5 2 4 1 2 4 4 4 3 3 2 3 2 2 2 3 7 4 2 1 3 4 3
17 18 19 16 10 10 10 9 8 6 6 7 5 6 6 3 8 8 10 7 5 4 2 2 2 1 3 1 1 2 3 3 2 4 4 4 3 3 1 2 6 5 3 4 5 3 5
16 17 17 18 13 10 11 10 9 8 6 7 8 9 10 6 7 10 13 15 13 8 3 2 2 1 2 3 1 1 3 1 3 3 0 3 6 4 8 6 6 10 12 8 9 9 12
Wind_Direction
6 5 5 5 5 4 360 3 7 11 22 34 54 71 74 75 74 161 130 312 299 285 256 172 160 157 178 134 66 75 128 154 174 165 156 147 142 126 117 113 110 111 212 290 260 277 276
5 5 9 9 5 4 2 3 10 16 19 34 46 57 65 56 53 61 110 278 299 298 203 200 174 155 161 115 98 111 149 148 156 160 145 145 131 122 107 105 109 168 264 275 278 271 265
8 9 9 4 4 5 2 1 7 14 23 26 38 42 56 44 37 34 42 335 300 328 152 133 173 166 137 132 134 147 129 114 131 141 134 120 129 134 113 104 53 359 329 314 288 293 270
11 11 11 8 7 4 360 360 4 9 22 26 20 34 30 27 21 29 40 48 24 128 139 121 143 145 94 132 151 156 110 99 112 126 125 108 114 105 81 119 40 39 53 351 237 292 320
13 12 10 12 8 1 359 1 2 360 21 26 28 16 18 23 33 42 77 73 66 111 127 110 125 127 68 138 149 134 160 116 122 120 113 125 127 84 89 78 37 20 325 330 312 259 322
14 15 11 17 10 6 0 359 4 3 13 20 26 22 18 33 42 62 102 91 89 101 96 87 94 104 154 106 122 123 123 130 118 119 108 94 66 70 48 73 214 346 6 294 264 279 273
15 17 14 20 12 10 7 6 9 7 9 13 20 29 38 44 58 92 119 109 90 65 63 68 69 93 106 116 114 119 121 122 104 72 83 44 74 207 217 169 112 105 257 273 257 269 294
16 12 19 22 17 13 17 16 15 19 19 15 17 45 42 49 56 105 130 90 103 115 61 68 83 99 86 87 109 126 142 100 84 92 92 39 217 228 168 130 147 227 277 279 289 257 267
14 13 16 23 19 16 11 24 28 24 23 18 22 35 49 68 71 112 105 91 105 107 83 39 45 55 48 99 91 146 166 115 94 105 175 137 156 79 129 136 188 229 222 235 249 319 269
10 13 13 16 23 20 17 16 27 30 28 25 23 32 45 51 78 93 103 125 113 78 79 2 6 35 46 111 94 171 159 71 80 162 154 225 246 192 183 245 177 271 208 236 266 294 300
10 9 12 13 11 22 19 24 21 31 29 31 32 29 48 53 89 94 120 130 36 16 66 332 359 28 46 31 136 177 202 329 17 339 112 266 198 193 229 220 176 250 17 257 269 266 297
10 10 12 9 12 10 20 20 21 20 36 43 41 36 33 71 76 88 119 35 18 44 71 18 358 40 62 270 73 90 51 286 316 315 222 230 207 217 216 225 187 271 306 276 251 243 242
7 10 8 12 8 9 5 9 14 9 10 14 32 39 42 49 85 90 19 334 40 69 256 31 60 249 322 66 89 146 186 112 92 14 358 306 217 228 181 289 165 216 286 313 347 214 244
5 7 8 6 8 7 3 358 355 354 6 2 11 32 37 49 61 129 69 48 63 22 58 178 121 357 32 342 46 72 87 300 202 128 290 4 335 195 167 212 330 183 209 251 293 288 300
8 5 6 5 5 3 4 360 350 350 355 2 4 51 31 44 72 94 77 61 94 79 136 134 175 15 279 243 222 269 204 323 267 174 216 304 277 115 195 155 175 92 231 239 262 227 276
8 5 4 5 2 2 0 358 353 351 352 355 10 46 29 47 58 59 63 91 81 5 350 127 204 191 66 51 313 6 320 212 287 174 187 322 298 221 48 134 259 259 332 279 241 291 285
359 8 3 1 5 2 3 357 355 352 359 10 45 67 14 72 61 58 62 62 319 334 315 208 357 164 140 165 222 197 265 250 222 184 183 313 261 292 101 206 166 239 230 251 261 252 304
355 1 7 0 2 5 2 357 352 353 15 30 45 48 4 107 53 34 42 332 338 322 345 313 248 262 184 173 191 232 219 214 186 156 185 214 235 270 239 227 325 349 137 195 222 185 223
353 354 3 3 359 6 360 5 6 6 15 44 58 31 22 157 108 49 332 349 310 358 5 4 324 353 33 195 299 216 245 292 168 165 207 180 237 312 346 41 144 156 228 254 151 195 235
349 352 355 4 2 2 6 9 27 11 10 45 64 47 35 61 90 124 134 8 337 348 316 346 359 43 9 37 62 316 337 332 335 249 225 182 206 205 203 219 291 296 335 262 188 168 166
341 352 353 359 6 3 9 5 20 12 10 50 69 61 84 71 355 106 118 131 22 3 354 22 35 47 275 19 351 1 333 322 255 7 124 164 252 191 254 240 236 254 272 297 214 244 208
332 349 353 356 4 5 8 11 14 17 17 48 94 118 85 97 102 339 348 206 135 278 346 342 59 324 0 105 172 273 6 190 332 323 41 348 282 345 287 187 223 261 230 216 220 173 124
327 337 352 353 359 4 5 11 13 27 28 57 64 86 63 343 39 92 227 192 206 175 190 205 235 250 316 246 279 272 259 264 260 323 310 36 25 16 268 346 315 287 216 197 196 216 158
324 328 347 349 356 1 5 8 11 30 42 40 38 22 100 232 124 258 192 200 200 237 169 207 186 192 305 316 306 283 253 242 237 241 214 277 16 144 260 346 1 253 17 358 239 250 223
323 323 331 345 353 356 4 5 10 26 43 34 27 16 341 163 222 271 279 284 290 278 264 258 214 222 306 334 359 349 336 317 204 187 202 206 143 245 186 225 280 128 190 186 185 291 211
321 322 322 335 343 352 356 0 7 12 18 16 12 15 354 174 246 197 179 208 257 276 312 252 269 281 279 107 88 337 273 272 300 319 159 133 114 140 187 175 247 225 192 186 154 286 304
315 320 321 317 330 340 346 344 354 355 0 13 24 19 359 293 263 199 196 203 183 181 233 298 334 300 318 342 156 177 234 190 245 257 293 332 359 219 220 260 291 266 239 179 99 240 310
309 315 321 311 310 322 326 326 325 326 335 347 1 16 18 286 279 241 232 209 203 207 171 277 358 320 13 23 272 228 194 233 298 239 195 190 164 223 127 273 299 178 102 174 227 301 291
296 305 315 310 299 303 310 308 305 305 305 312 314 326 325 297 259 270 258 242 240 238 226 259 307 280 218 90 238 158 260 250 191 264 63 259 197 191 184 215 210 210 244 258 268 272 291
Height
1521 1516 1510 1505 1500 1494 1488 1481 1473 1466 1457 1444 1439 1442 1445 1450 1453 1454 1455 1455 1455 1456 1457 1460 1463 1465 1471 1478 1482 1483 1482 1487 1490 1493 1496 1498 1503 1506 1510 1512 1514 1514 1516 1516 1516 1515 1513
1523 1516 1511 1505 1500 1494 1488 1482 1475 1467 1463 1457 1452 1450 1451 1454 1455 1455 1454 1453 1453 1454 1456 1458 1461 1465 1471 1478 1481 1482 1484 1486 1490 1493 1497 1499 1501 1505 1509 1512 1514 1515 1515 1515 1511 1508 1508
1523 1518 1513 1506 1501 1495 1489 1483 1477 1471 1464 1463 1458 1455 1454 1455 1454 1453 1452 1452 1452 1453 1454 1456 1459 1466 1473 1479 1482 1485 1487 1488 1494 1495 1497 1500 1501 1505 1509 1512 1513 1514 1514 1509 1507 1506 1505
1524 1518 1513 1508 1503 1497 1490 1483 1478 1473 1467 1463 1461 1457 1456 1454 1453 1452 1453 1452 1450 1452 1455 1458 1462 1469 1476 1479 1484 1488 1491 1493 1496 1498 1500 1502 1503 1506 1509 1512 1513 1515 1516 1512 1507 1507 1505
1523 1519 1513 1508 1503 1497 1491 1484 1479 1473 1468 1464 1461 1459 1456 1456 1454 1454 1454 1453 1451 1453 1458 1461 1463 1468 1478 1481 1484 1489 1493 1495 1498 1500 1502 1504 1505 1508 1511 1514 1518 1520 1519 1519 1510 1507 1506
1524 1519 1514 1509 1503 1497 1491 1485 1479 1474 1470 1466 1462 1459 1456 1455 1455 1455 1457 1456 1458 1461 1463 1466 1470 1476 1483 1483 1486 1491 1494 1498 1499 1501 1503 1505 1507 1511 1514 1516 1513 1517 1526 1522 1517 1507 1505
1524 1520 1515 1510 1504 1498 1492 1485 1480 1476 1473 1469 1463 1460 1458 1456 1455 1457 1459 1459 1465 1471 1471 1474 1476 1477 1483 1488 1492 1495 1497 1499 1500 1502 1505 1507 1511 1515 1514 1515 1516 1521 1524 1522 1511 1505 1505
1525 1520 1516 1511 1505 1501 1493 1487 1483 1478 1475 1471 1466 1463 1461 1459 1458 1459 1461 1462 1468 1475 1478 1481 1483 1484 1489 1491 1495 1498 1500 1501 1502 1506 1508 1512 1512 1510 1512 1514 1516 1519 1521 1516 1505 1500 1499
1526 1521 1517 1514 1509 1503 1498 1491 1485 1482 1478 1475 1471 1467 1465 1463 1462 1462 1464 1469 1472 1474 1480 1489 1490 1490 1493 1496 1498 1500 1501 1502 1504 1507 1510 1510 1509 1508 1510 1513 1516 1517 1516 1512 1509 1500 1494
1528 1522 1518 1514 1510 1505 1501 1495 1491 1486 1482 1480 1477 1472 1469 1466 1468 1467 1467 1471 1472 1473 1486 1499 1497 1497 1498 1498 1501 1502 1503 1505 1505 1507 1509 1511 1508 1508 1508 1509 1513 1511 1503 1501 1503 1505 1495
1531 1525 1520 1515 1511 1506 1503 1497 1495 1491 1487 1483 1481 1477 1473 1471 1470 1471 1473 1472 1472 1472 1513 1505 1501 1500 1499 1500 1502 1503 1504 1504 1505 1505 1508 1506 1504 1506 1507 1504 1506 1499 1496 1498 1499 1499 1497
1533 1528 1522 1516 1512 1509 1504 1500 1498 1494 1491 1486 1484 1481 1480 1477 1476 1477 1477 1476 1475 1490 1510 1504 1504 1504 1503 1501 1502 1504 1505 1506 1506 1505 1503 1504 1502 1502 1499 1496 1496 1494 1496 1493 1493 1494 1490
1535 1529 1524 1518 1514 1510 1506 1502 1499 1494 1493 1492 1488 1485 1483 1482 1481 1482 1481 1480 1492 1507 1511 1508 1507 1506 1502 1502 1504 1504 1506 1506 1507 1507 1511 1503 1498 1495 1495 1496 1494 1497 1498 1491 1496 1486 1476
1536 1531 1526 1521 1515 1511 1507 1504 1500 1496 1494 1492 1490 1488 1486 1484 1483 1482 1482 1485 1503 1504 1504 1507 1506 1507 1503 1505 1505 1505 1507 1509 1507 1508 1506 1506 1506 1494 1492 1493 1492 1494 1493 1488 1486 1481 1471
1537 1533 1527 1523 1517 1512 1508 1504 1500 1495 1495 1493 1491 1488 1487 1485 1483 1484 1485 1498 1508 1507 1506 1506 1508 1507 1507 1505 1505 1505 1505 1503 1502 1504 1505 1500 1498 1490 1491 1490 1494 1488 1487 1489 1483 1478 1474
1538 1534 1529 1524 1519 1512 1508 1504 1499 1496 1494 1491 1490 1490 1489 1489 1487 1487 1490 1499 1508 1507 1505 1505 1505 1504 1504 1504 1504 1506 1502 1502 1500 1501 1503 1501 1498 1489 1488 1491 1491 1490 1489 1485 1485 1479 1470
1538 1534 1530 1524 1519 1514 1508 1504 1500 1496 1494 1490 1489 1491 1492 1491 1491 1492 1504 1509 1507 1505 1505 1505 1503 1502 1503 1504 1503 1502 1503 1501 1499 1500 1503 1502 1501 1492 1490 1488 1489 1488 1485 1487 1488 1483 1473
1538 1534 1530 1525 1520 1515 1509 1504 1500 1496 1494 1491 1492 1495 1495 1493 1495 1506 1513 1511 1507 1506 1504 1503 1502 1499 1500 1502 1502 1502 1500 1497 1496 1498 1502 1500 1500 1496 1486 1480 1480 1481 1485 1487 1483 1479 1481
1538 1534 1530 1526 1520 1515 1509 1502 1499 1497 1494 1493 1496 1498 1496 1494 1506 1514 1513 1511 1509 1506 1505 1504 1502 1501 1499 1501 1502 1499 1496 1493 1495 1497 1496 1496 1499 1498 1483 1483 1481 1482 1485 1484 1484 1484 1481
1538 1534 1529 1526 1521 1516 1510 1504 1500 1498 1496 1495 1497 1500 1498 1497 1502 1503 1507 1512 1511 1508 1507 1506 1504 1501 1501 1503 1503 1500 1499 1495 1495 1495 1493 1493 1496 1493 1490 1483 1485 1483 1478 1478 1478 1482 1471
1537 1534 1530 1525 1522 1517 1511 1507 1503 1501 1498 1496 1498 1504 1504 1509 1508 1505 1505 1509 1513 1513 1509 1508 1506 1508 1507 1506 1505 1504 1501 1498 1494 1494 1493 1494 1494 1496 1487 1484 1484 1481 1478 1476 1478 1473 1473
1535 1534 1530 1525 1522 1517 1512 1509 1505 1502 1500 1499 1500 1502 1505 1504 1507 1510 1508 1512 1509 1509 1509 1508 1509 1508 1507 1509 1510 1508 1503 1500 1498 1495 1495 1495 1495 1493 1487 1480 1483 1479 1473 1474 1471 1471 1471
1534 1531 1530 1526 1522 1518 1514 1511 1508 1505 1504 1502 1503 1504 1506 1509 1507 1509 1509 1508 1506 1503 1505 1506 1507 1508 1506 1504 1503 1502 1501 1498 1498 1498 1496 1496 1497 1499 1492 1486 1484 1478 1468 1466 1465 1466 1465
1532 1529 1529 1525 1522 1519 1515 1513 1511 1508 1507 1508 1507 1506 1504 1509 1509 1506 1504 1504 1505 1505 1504 1502 1503 1506 1504 1502 1498 1496 1496 1495 1495 1494 1496 1496 1497 1502 1500 1490 1491 1462 1462 1463 1463 1461 1460
1531 1528 1527 1525 1522 1519 1516 1514 1512 1510 1508 1508 1508 1509 1508 1508 1508 1507 1505 1505 1504 1504 1506 1502 1499 1498 1497 1496 1497 1496 1497 1492 1490 1490 1492 1493 1496 1500 1501 1504 1471 1460 1461 1463 1463 1458 1455
1529 1527 1525 1524 1522 1519 1516 1514 1514 1512 1509 1507 1507 1507 1507 1509 1505 1505 1507 1506 1507 1506 1502 1499 1500 1499 1496 1493 1498 1498 1500 1496 1491 1490 1488 1490 1491 1495 1498 1491 1465 1457 1458 1458 1460 1464 1453
1526 1524 1523 1522 1521 1518 1515 1514 1513 1513 1511 1508 1506 1506 1506 1506 1504 1505 1505 1505 1503 1504 1506 1501 1499 1498 1498 1498 1495 1500 1503 1498 1497 1493 1487 1492 1495 1493 1493 1495 1473 1462 1460 1459 1463 1459 1450
1522 1520 1520 1519 1518 1517 1515 1513 1511 1511 1511 1510 1507 1504 1503 1503 1501 1500 1501 1501 1502 1502 1503 1501 1501 1499 1499 1502 1502 1501 1501 1496 1497 1491 1484 1485 1491 1494 1496 1493 1484 1459 1461 1463 1455 1450 1450
1517 1516 1516 1516 1515 1514 1513 1512 1510 1509 1508 1508 1508 1505 1503 1500 1497 1496 1496 1496 1497 1498 1499 1500 1503 1500 1499 1502 1503 1502 1498 1500 1495 1490 1483 1488 1477 1478 1477 1466 1453 1455 1452 1452 1451 1450 1449